| time (UTC) | temp F | wind direction | speed MPH | gust MPH | rain 1hr in | rain 24hr in | rain mn in | humidity % | barometer mb |
| 20260903130030 | 50 | 112 | 2.0 | 5.0 | 0.00 | 5.27 | 0.00 | 90 | 1006.1 |
| 20260903124529 | 50 | 112 | 1.0 | 4.0 | 0.00 | 5.27 | 0.00 | 91 | 1006.1 |
| 20260903123037 | 51 | 112 | 0.0 | 2.0 | 0.00 | 5.27 | 0.00 | 91 | 1006.1 |
| 20260903121529 | 51 | 112 | 0.0 | 3.0 | 0.00 | 5.27 | 0.00 | 91 | 1006.1 |
| 20260903114531 | 50 | 270 | 0.0 | 1.0 | 0.00 | 5.27 | 0.00 | 88 | 1006.0 |
| 20260903111527 | 51 | 187 | 0.0 | 2.0 | 0.00 | 5.27 | 0.00 | 88 | 1005.7 |
| 20260903110108 | 52 | 109 | 2.0 | 4.0 | 0.00 | 5.27 | 0.00 | 86 | 1005.4 |
| 20260903104537 | 53 | 353 | 1.0 | 4.0 | 0.00 | 5.27 | 0.00 | 85 | 1005.4 |
| 20260903103027 | 53 | 107 | 4.0 | 5.0 | 0.00 | 5.27 | 0.00 | 87 | 1005.5 |
| 20260903101529 | 53 | 120 | 3.0 | 7.0 | 0.00 | 5.27 | 0.00 | 89 | 1005.5 |
| 20260903100030 | 53 | 225 | 0.0 | 2.0 | 0.00 | 5.27 | 0.00 | 88 | 1005.6 |
| 20260903094532 | 53 | 225 | 0.0 | 2.0 | 0.00 | 5.27 | 0.00 | 86 | 1005.3 |
| 20260903091529 | 53 | 114 | 1.0 | 2.0 | 0.00 | 5.27 | 0.00 | 82 | 1005.3 |
| 20260903090030 | 54 | 112 | 3.0 | 4.0 | 0.00 | 5.27 | 0.00 | 82 | 1005.2 |
| 20260903084529 | 53 | 112 | 2.0 | 4.0 | 0.00 | 5.27 | 0.00 | 85 | 1005.1 |
| 20260903083032 | 53 | 327 | 0.0 | 3.0 | 0.00 | 5.27 | 0.00 | 84 | 1005.2 |
| 20260903081531 | 53 | 97 | 2.0 | 5.0 | 0.00 | 5.27 | 0.00 | 85 | 1005.1 |
| 20260903080030 | 53 | 127 | 0.0 | 1.0 | 0.00 | 5.27 | 0.00 | 85 | 1005.0 |
| 20260903074532 | 54 | 157 | 1.0 | 3.0 | 0.00 | 5.27 | 0.00 | 86 | 1004.7 |
| 20260903073030 | 55 | 272 | 0.0 | 4.0 | 0.00 | 5.27 | 0.00 | 89 | 1004.6 |
| 20260903071542 | 55 | 298 | 0.0 | 1.0 | 0.00 | 5.27 | 0.00 | 90 | 1004.7 |
| 20260903070035 | 55 | 293 | 0.0 | 5.0 | 0.00 | 5.27 | 0.00 | 90 | 1004.5 |
| 20260903064529 | 55 | 247 | 0.0 | 2.0 | 0.00 | 5.27 | 5.27 | 90 | 1004.5 |
| 20260903063028 | 55 | 225 | 1.0 | 4.0 | 0.00 | 5.27 | 5.27 | 90 | 1004.6 |
| 20260903061531 | 56 | 123 | 0.0 | 1.0 | 0.00 | 5.27 | 5.27 | 89 | 1004.5 |
| 20260903060032 | 57 | 112 | 1.0 | 4.0 | 0.00 | 5.27 | 5.27 | 89 | 1004.5 |
| 20260903053029 | 57 | 199 | 1.0 | 5.0 | 0.00 | 5.27 | 5.27 | 91 | 1004.5 |
| 20260903051531 | 57 | 260 | 2.0 | 8.0 | 0.00 | 5.27 | 5.27 | 91 | 1004.4 |
| 20260903050106 | 57 | 288 | 2.0 | 7.0 | 0.00 | 5.27 | 5.27 | 91 | 1004.2 |
| 20260903044530 | 57 | 291 | 1.0 | 5.0 | 0.00 | 5.27 | 5.27 | 91 | 1004.2 |
| 20260903043039 | 57 | 269 | 1.0 | 6.0 | 0.00 | 5.27 | 5.27 | 90 | 1004.2 |
| 20260903031531 | 58 | 243 | 3.0 | 6.0 | 0.10 | 5.26 | 5.25 | 87 | 1003.1 |
| 20260903030031 | 60 | 233 | 6.0 | 17.0 | 0.09 | 5.25 | 5.16 | 86 | 1002.9 |
| 20260903024646 | 61 | 243 | 4.0 | 10.0 | 0.00 | 5.16 | 5.16 | 88 | 1002.6 |
| 20260903023029 | 61 | 177 | 2.0 | 3.0 | 0.00 | 5.16 | 5.16 | 89 | 1002.2 |
| 20260903021531 | 61 | 190 | 2.0 | 4.0 | 0.01 | 5.16 | 5.16 | 88 | 1002.3 |
| 20260903020036 | 61 | 244 | 1.0 | 3.0 | 0.01 | 5.16 | 5.16 | 87 | 1002.2 |
| 20260903014605 | 61 | 270 | 1.0 | 3.0 | 0.01 | 5.16 | 5.16 | 87 | 1002.3 |
| 20260903013146 | 62 | 273 | 2.0 | 5.0 | 0.01 | 5.16 | 5.15 | 85 | 1002.4 |
| 20260903011529 | 62 | 264 | 0.0 | 3.0 | 0.00 | 5.15 | 5.15 | 85 | 1002.4 |
| 20260903010031 | 62 | 255 | 2.0 | 5.0 | 0.00 | 5.15 | 5.15 | 83 | 1002.5 |
| 20260903004530 | 63 | 241 | 1.0 | 4.0 | 0.00 | 5.15 | 5.15 | 78 | 1002.5 |
| 20260903003028 | 63 | 325 | 0.0 | 2.0 | 0.00 | 5.15 | 5.15 | 77 | 1002.4 |
| 20260903001644 | 63 | 346 | 0.0 | 3.0 | 0.00 | 5.15 | 5.15 | 78 | 1002.5 |
| 20260903000030 | 63 | 7 | 1.0 | 4.0 | 0.00 | 5.15 | 5.15 | 77 | 1002.5 |
| 20260902234534 | 63 | 356 | 1.0 | 4.0 | 0.00 | 5.15 | 5.15 | 80 | 1002.6 |
| 20260902231644 | 63 | 1 | 1.0 | 5.0 | 0.00 | 5.15 | 5.15 | 78 | 1002.6 |
| 20260902230033 | 62 | 44 | 3.0 | 6.0 | 0.00 | 5.15 | 5.15 | 78 | 1002.6 |
| 20260902224538 | 63 | 349 | 2.0 | 4.0 | 0.00 | 5.15 | 5.15 | 79 | 1002.5 |
| 20260902223031 | 63 | 52 | 1.0 | 6.0 | 0.00 | 5.15 | 5.15 | 78 | 1002.4 |
| 20260902221527 | 62 | 65 | 1.0 | 4.0 | 0.01 | 5.15 | 5.15 | 79 | 1002.5 |
| 20260902220031 | 62 | 58 | 2.0 | 5.0 | 0.02 | 5.15 | 5.15 | 80 | 1002.4 |
| 20260902214534 | 62 | 43 | 2.0 | 6.0 | 0.02 | 5.15 | 5.15 | 81 | 1002.5 |
| 20260902213028 | 63 | 55 | 2.0 | 6.0 | 0.02 | 5.15 | 5.14 | 79 | 1002.7 |
| 20260902211607 | 63 | 69 | 2.0 | 4.0 | 0.01 | 5.14 | 5.13 | 76 | 1002.9 |
| 20260902210028 | 64 | 31 | 1.0 | 4.0 | 0.01 | 5.13 | 5.13 | 75 | 1002.9 |
| 20260902203031 | 65 | 9 | 1.0 | 4.0 | 0.01 | 5.13 | 5.13 | 72 | 1002.7 |
| 20260902201647 | 64 | 264 | 0.0 | 2.0 | 0.01 | 5.13 | 5.12 | 72 | 1002.7 |
| 20260902200030 | 65 | 233 | 2.0 | 5.0 | 0.00 | 5.12 | 5.12 | 70 | 1002.8 |
| 20260902194530 | 67 | 229 | 4.0 | 8.0 | 0.00 | 5.12 | 5.12 | 62 | 1002.6 |
| 20260902193038 | 70 | 237 | 6.0 | 13.0 | 0.00 | 5.12 | 5.12 | 53 | 1002.0 |
| 20260902191531 | 72 | 295 | 2.0 | 5.0 | 5.12 | 5.12 | 5.12 | 51 | 1001.6 |
| 20260902190144 | 72 | 350 | 2.0 | 6.0 | 5.12 | 5.12 | 5.12 | 49 | 1001.6 |
| 20260902183104 | 71 | 330 | 655.0 | 0.0 | 5.12 | 5.12 | 0.00 | 50 | 997.0 |
| 20260902181531 | 71 | 359 | 2.0 | 6.0 | 0.00 | 0.00 | 0.00 | 52 | 1002.2 |
| 20260902180031 | 69 | 334 | 3.0 | 6.0 | 0.00 | 0.00 | 0.00 | 56 | 1002.4 |
| 20260902173032 | 67 | 12 | 1.0 | 3.0 | 0.00 | 0.00 | 0.00 | 57 | 1003.0 |
| 20260902171535 | 68 | 298 | 1.0 | 4.0 | 0.00 | 0.00 | 0.00 | 58 | 1003.1 |
| 20260902170031 | 68 | 282 | 2.0 | 4.0 | 0.00 | 0.00 | 0.00 | 58 | 1003.3 |
| 20260902164530 | 68 | 338 | 1.0 | 4.0 | 0.00 | 0.00 | 0.00 | 57 | 1003.5 |
| 20260902163029 | 67 | 322 | 2.0 | 4.0 | 0.00 | 0.00 | 0.00 | 58 | 1003.6 |
| 20260902160028 | 65 | 292 | 0.0 | 1.0 | 0.00 | 0.00 | 0.00 | 62 | 1003.8 |
| 20260902154529 | 62 | 352 | 1.0 | 5.0 | 0.00 | 0.00 | 0.00 | 65 | 1004.0 |
| 20260902153144 | 62 | 4 | 2.0 | 4.0 | 0.00 | 0.00 | 0.00 | 66 | 1004.2 |
| 20260902151537 | 62 | 336 | 1.0 | 3.0 | 0.00 | 0.00 | 0.00 | 66 | 1004.3 |
| 20260902150144 | 61 | 196 | 1.0 | 5.0 | 0.00 | 0.00 | 0.00 | 67 | 1004.3 |
| 20260902144531 | 59 | 158 | 4.0 | 6.0 | 0.00 | 0.00 | 0.00 | 68 | 1004.4 |
| 20260902143033 | 59 | 159 | 3.0 | 7.0 | 0.00 | 0.00 | 0.00 | 69 | 1004.5 |
| 20260902141531 | 58 | 179 | 2.0 | 6.0 | 0.00 | 0.00 | 0.00 | 71 | 1004.5 |
| 20260902140106 | 57 | 213 | 2.0 | 5.0 | 0.00 | 0.00 | 0.00 | 72 | 1004.5 |
| 20260902134531 | 58 | 213 | 1.0 | 5.0 | 0.00 | 0.00 | 0.00 | 71 | 1004.5 |
| 20260902133144 | 58 | 166 | 2.0 | 5.0 | 0.00 | 0.00 | 0.00 | 70 | 1004.6 |
| 20260902131533 | 58 | 185 | 2.0 | 6.0 | 0.00 | 0.00 | 0.00 | 70 | 1004.8 |